This is the latest recevied weather packets stored in our database for station/object IZ1OSY-3. If no packets are shown the sender has not sent any weather packets the latest 10 day(s).
| Time | Temp. | Humidity | Pressure | Rain* | Wind** | Luminosity | Snow |
|---|---|---|---|---|---|---|---|
| 1777913942 | 11.67° C | 56% | 1016.9 hPa | - | - | - | - |
| 1777913646 | 11.67° C | 52% | 1016.9 hPa | - | - | - | - |
| 1777912742 | 11.67° C | 52% | 1016.9 hPa | - | - | - | - |
| 1777912445 | 11.67° C | 49% | 1016.8 hPa | - | - | - | - |
| 1777911541 | 11.67° C | 51% | 1016.9 hPa | - | - | - | - |
| 1777911244 | 11.67° C | 51% | 1016.9 hPa | - | - | - | - |
| 1777910340 | 11.67° C | 76% | 1016.9 hPa | - | - | - | - |
| 1777910044 | 11.67° C | 81% | 1017 hPa | - | - | - | - |
| 1777909139 | 11.67° C | 73% | 1016.9 hPa | - | - | - | - |
| 1777908843 | 11.67° C | 73% | 1017 hPa | - | - | - | - |
| 1777907938 | 11.67° C | 61% | 1017.1 hPa | - | - | - | - |
| 1777907642 | 11.67° C | 62% | 1017.1 hPa | - | - | - | - |
| 1777906441 | 12.22° C | 67% | 1017.3 hPa | - | - | - | - |
| 1777905537 | 12.22° C | 68% | 1017.4 hPa | - | - | - | - |
| 1777905240 | 12.22° C | 68% | 1017.3 hPa | - | - | - | - |
| 1777904336 | 12.78° C | 66% | 1017.5 hPa | - | - | - | - |
| 1777902839 | 12.22° C | 73% | 1017.9 hPa | - | - | - | - |
| 1777901934 | 11.67° C | 64% | 1018.1 hPa | - | - | - | - |
| 1777901638 | 11.67° C | 61% | 1018.1 hPa | - | - | - | - |
| 1777900733 | 11.67° C | 72% | 1018.2 hPa | - | - | - | - |
| 1777900437 | 11.67° C | 73% | 1018.3 hPa | - | - | - | - |
| 1777899533 | 11.67° C | 81% | 1018.4 hPa | - | - | - | - |
| 1777898332 | 11.67° C | 82% | 1018.6 hPa | - | - | - | - |
| 1777898035 | 11.67° C | 78% | 1018.5 hPa | - | - | - | - |
| 1777897131 | 11.67° C | 76% | 1018.6 hPa | - | - | - | - |
* Rain since midnight (hover to see other rain measurements)
** Current wind speed in m/s (hover to see current wind gust speed)